Flight Track Log - Related Links

Times and Time Zones

All times are in EDT time to prevent confusion due to time zone crossing. See the EJA922 flight status page for this flight to view local times or setup timezone preferences in your user account.

Time Position Orientation Groundspeed Altitude Reporting Facility
EDT Latitude Longitude Course Direction KTS MPH feet Rate Location/Type
Sun 09:54:51 AM 29.6564 -95.2672 North 182 209 800  Level Houston Center
Sun 09:55:34 AM 29.7000 -95.2597 North 217 250 3,000 2,753 Climbing Houston Center
Sun 09:56:16 AM 29.7394 -95.2594 360° North 216 249 4,700 2,687 Climbing Houston Center
Sun 09:56:41 AM 29.7733 -95.2581 North 258 297 6,000 2,806 Climbing Houston Center
Sun 09:57:18 AM 29.8172 -95.2569 North 276 318 7,600 3,134 Climbing Houston Center
Sun 09:57:48 AM 29.8633 -95.2542 North 286 329 9,500 2,806 Climbing Houston Center
Sun 09:58:20 AM 29.8964 -95.2533 North 284 327 10,500 1,742 Climbing Houston Center
Sun 09:59:21 AM 30.0022 -95.2483 North 346 398 12,200 1,854 Climbing Houston Center
Sun 10:00:23 AM 30.0942 -95.2428 North 367 422 14,300 2,000 Climbing Houston Center
Sun 10:01:24 AM 30.2028 -95.2372 North 385 443 16,300 2,000 Climbing Houston Center
Sun 10:02:26 AM 30.3333 -95.2056 12° North 401 461 18,400 1,756 Climbing Houston Center
Sun 10:03:27 AM 30.4417 -95.1656 18° North 409 471 19,900 1,366 Climbing Houston Center
Sun 10:04:29 AM 30.5428 -95.1269 18° North 415 478 21,200 1,317 Climbing Houston Center
Sun 10:05:30 AM 30.6783 -95.0772 18° North 424 488 22,600 1,366 Climbing Houston Center
Sun 10:06:32 AM 30.7925 -95.0342 18° North 428 493 24,000 1,122 Climbing Houston Center
Sun 10:07:33 AM 30.9094 -94.9911 18° North 437 503 24,900 1,073 Climbing Houston Center
Sun 10:08:35 AM 31.0286 -94.9478 17° North 444 511 26,200 1,161 Climbing Houston Center
Sun 10:09:37 AM 31.1472 -94.8853 24° Northeast 441 507 27,300 976 Climbing Houston Center
Sun 10:10:38 AM 31.2569 -94.8053 32° Northeast 461 531 28,200 927 Climbing Houston Center
Sun 10:11:40 AM 31.3756 -94.7189 32° Northeast 478 550 29,200 976 Climbing Houston Center
Sun 10:12:41 AM 31.4881 -94.6350 32° Northeast 476 548 30,200 1,024 Climbing Houston Center
Sun 10:13:43 AM 31.6031 -94.5500 32° Northeast 484 557 31,300 1,355 Climbing Houston Center
Sun 10:14:45 AM 31.7178 -94.4650 32° Northeast 486 559 33,000 1,902 Climbing Houston Center
Sun 10:15:46 AM 31.8286 -94.3833 32° Northeast 472 543 35,200 1,914 Climbing Houston Center
Sun 10:16:41 AM 31.9372 -94.3022 32° Northeast 465 535 36,700 1,385 Climbing Fort Worth Center
Sun 10:17:43 AM 32.0497 -94.2178 32° Northeast 478 550 37,900 1,161 Climbing Fort Worth Center
Sun 10:18:45 AM 32.1650 -94.1308 33° Northeast 489 563 39,100 1,210 Climbing Fort Worth Center
Sun 10:19:47 AM 32.2931 -94.0353 32° Northeast 495 570 40,400 919 Climbing Fort Worth Center
Sun 10:20:49 AM 32.4103 -93.9464 33° Northeast 501 577 41,000 293 Climbing Fort Worth Center
Sun 10:21:50 AM 32.5264 -93.8594 32° Northeast 494 568 41,000  Level Fort Worth Center
Sun 10:22:52 AM 32.6428 -93.7689 33° Northeast 500 575 41,000  Level Fort Worth Center
Sun 10:23:54 AM 32.7578 -93.6808 33° Northeast 496 571 41,000  Level Fort Worth Center
Sun 10:24:56 AM 32.8942 -93.5719 34° Northeast 488 562 41,000  Level Fort Worth Center
Sun 10:25:58 AM 33.0086 -93.4839 33° Northeast 489 563 41,000  Level Fort Worth Center
Sun 10:27:00 AM 33.1175 -93.3986 33° Northeast 466 536 41,000  Level Fort Worth Center
Sun 10:28:02 AM 33.2308 -93.3092 33° Northeast 487 560 41,000  Level Fort Worth Center
Sun 10:29:03 AM 33.3400 -93.2250 33° Northeast 474 545 41,000  Level Fort Worth Center
Sun 10:30:05 AM 33.4547 -93.1342 33° Northeast 487 560 41,000  Level Fort Worth Center
Sun 10:31:07 AM 33.5928 -93.0239 34° Northeast 497 572 41,000  Level Fort Worth Center
Sun 10:32:09 AM 33.7072 -92.9339 33° Northeast 494 568 41,000  Level Fort Worth Center
Sun 10:33:02 AM 33.8033 -92.8619 32° Northeast 489 563 41,000  Level Memphis Center
Sun 10:34:02 AM 33.9136 -92.7725 34° Northeast 484 557 41,000  Level Memphis Center
Sun 10:35:02 AM 34.0281 -92.6856 32° Northeast 484 557 41,000  Level Memphis Center
Sun 10:36:02 AM 34.1383 -92.5906 35° Northeast 484 557 41,000  Level Memphis Center
Sun 10:37:02 AM 34.2461 -92.5031 34° Northeast 478 550 41,000  Level Memphis Center
Sun 10:38:02 AM 34.3583 -92.4103 34° Northeast 478 550 41,000  Level Memphis Center
Sun 10:39:02 AM 34.4703 -92.3222 33° Northeast 478 550 41,000  Level Memphis Center
Sun 10:40:02 AM 34.5803 -92.2289 35° Northeast 478 550 41,000  Level Memphis Center
Sun 10:41:02 AM 34.6900 -92.1403 34° Northeast 472 543 41,000  Level Memphis Center
Sun 10:42:02 AM 34.8039 -92.0492 33° Northeast 472 543 41,000  Level Memphis Center
Sun 10:43:02 AM 34.9158 -91.9575 34° Northeast 477 549 41,000  Level Memphis Center
Sun 10:44:02 AM 35.0275 -91.8633 35° Northeast 477 549 41,000  Level Memphis Center
Sun 10:45:02 AM 35.1392 -91.7689 35° Northeast 483 556 41,000  Level Memphis Center
Sun 10:46:02 AM 35.2550 -91.6742 34° Northeast 483 556 41,000  Level Memphis Center
Sun 10:47:02 AM 35.3686 -91.5792 34° Northeast 490 564 41,000  Level Memphis Center
Sun 10:48:02 AM 35.4864 -91.4842 33° Northeast 490 564 41,000  Level Memphis Center
Sun 10:49:02 AM 35.6017 -91.3911 33° Northeast 490 564 41,000  Level Memphis Center
Sun 10:50:02 AM 35.7089 -91.2953 36° Northeast 490 564 41,000 -50 Level Memphis Center
Sun 10:51:02 AM 35.8200 -91.2019 34° Northeast 477 549 40,900 -500 Descending Memphis Center
Sun 10:52:02 AM 35.9311 -91.1056 35° Northeast 477 549 40,000 -850 Descending Memphis Center
Sun 10:53:02 AM 36.0464 -91.0117 33° Northeast 477 549 39,200 -800 Descending Memphis Center
Sun 10:54:02 AM 36.1656 -90.9406 26° Northeast 482 555 38,400 -1,000 Descending Memphis Center
Sun 10:55:02 AM 36.2972 -90.9003 14° North 477 549 37,200 -1,500 Descending Memphis Center
Sun 10:56:02 AM 36.4328 -90.8547 15° North 488 562 35,400 -1,900 Descending Memphis Center
Sun 10:57:02 AM 36.5853 -90.8092 13° North 501 577 33,400 -2,000 Descending Memphis Center
Sun 10:58:02 AM 36.7269 -90.7633 15° North 511 588 31,400 -1,953 Descending Memphis Center
Sun 10:59:54 AM 36.9822 -90.6775 15° North 533 613 27,800 -1,535 Descending Kansas City Center
Sun 11:00:54 AM 37.1264 -90.6294 15° North 534 615 27,000 -393 Descending Kansas City Center
Sun 11:01:56 AM 37.2667 -90.5842 14° North 525 604 27,000 -576 Level Kansas City Center
Sun 11:02:59 AM 37.4181 -90.5350 14° North 511 588 25,800 -1,512 Descending Kansas City Center
Sun 11:03:59 AM 37.5503 -90.4906 15° North 497 572 23,900 -1,920 Descending Kansas City Center
Sun 11:05:04 AM 37.6806 -90.4517 13° North 488 562 21,800 -1,952 Descending Kansas City Center
Sun 11:06:05 AM 37.8069 -90.4097 15° North 477 549 19,800 -2,516 Descending Kansas City Center
Sun 11:07:08 AM 37.9206 -90.3714 15° North 433 498 16,600 -3,561 Descending Kansas City Center
Sun 11:08:08 AM 38.0422 -90.3325 14° North 363 418 12,500 -3,290 Descending Kansas City Center
Sun 11:09:12 AM 38.1208 -90.2956 20° North 308 354 9,800 -2,160 Descending Kansas City Center
Sun 11:10:13 AM 38.1892 -90.2456 30° Northeast 287 330 8,000 -1,500 Descending Kansas City Center
Sun 11:11:16 AM 38.2667 -90.2286 10° North 282 325 6,700 -1,161 Descending Kansas City Center
Sun 11:12:17 AM 38.3383 -90.2111 11° North 269 310 5,600 -1,113 Descending Kansas City Center
Sun 11:13:20 AM 38.4006 -90.1961 11° North 248 285 4,400 -1,258 Descending Kansas City Center
Sun 11:14:21 AM 38.4633 -90.2189 344° North 211 243 3,000 -976 Descending Kansas City Center
Sun 11:15:23 AM 38.5150 -90.2428 340° North 200 230 2,400 -439 Descending Kansas City Center
Sun 11:16:24 AM 38.5642 -90.2386 North 198 228 2,100 -683 Descending Kansas City Center
Sun 11:17:26 AM 38.5878 -90.1972 54° Northeast 171 197 1,000 -810 Descending Kansas City Center
Sun 11:18:30 AM 38.5694 -90.1558 120° Southeast 148 170 400 -563 Descending Kansas City Center
Sun 11:20:00 AM 38.5667 -90.1500 11° North  Level FlightAware Approximate

Login

Don't have an account? Register now (free) for customized features, flight alerts, and more!